User: anonymous
Location: Unspecified
(0.0000°N, 0.0000°E)
Time: 05:22:25
(UTC+00:00)
Language:

METEOR-M - Orbit

View from above orbital plane
View from above orbital plane
View from above satellite
View from above satellite

Ground track
Ground track

The orbit data is extracted from the following two-line orbital elements,

1 35865U 09049A   14293.20496476  .00000161  00000-0  91955-4 0    22
2 35865 098.5356 336.7404 0003564 098.1222 302.1412 14.21939263264100
Epoch (UTC): 20 October 2014 04:55:08
Eccentricity: 0.0003564
inclination: 98.5356°
perigee height: 816 km
apogee height: 821 km
right ascension of ascending node: 336.7404°
argument of perigee: 98.1222°
revolutions per day: 14.21939263
mean anomaly at epoch: 302.1412°
orbit number at epoch: 26410

The dashed part of the orbit path shows where the satellite is in the earth's shadow,  

DLR